Current Version              Previous Version:    01  02  03  04  05  06  07  08  09  10  11  12  13  14  15  16  17  18  19  20  21  22  23  24  25  26  27  28  29  30  
   31  32  33  34  35  36  37  38  39  40  41  42  43  44  45  46  47  48  49  50  51  52  53  54  55  56  57  58  59  60  

[Printable]
558
ASUS44 KFWD 161015
RWRTX
NORTH TEXAS HOURLY WEATHER ROUNDUP
NATIONAL WEATHER SERVICE FORT WORTH TX
500 AM CDT TUE SEP 16 2014

NOTE: "FAIR" INDICATES FEW OR NO CLOUDS BELOW 12,000 FEET WITH NO
SIGNIFICANT WEATHER AND/OR OBSTRUCTIONS TO VISIBILITY.

TXZ118-119-161100-
DALLAS/FORT WORTH METROPLEX

CITY           SKY/WX    TMP DP  RH WIND       PRES   REMARKS
DFW AIRPORT    CLOUDY    76  68  76 SE3       30.09F
DALLAS LOVE    CLOUDY    76  70  82 CALM      30.09F
FTW MEACHAM    CLOUDY    76  69  79 CALM      30.10S
DAL-EXECUTIVE  CLOUDY    76  69  79 CALM      30.10S
FTW-ALLIANCE   CLOUDY    72  68  87 CALM      30.10S
FTW-NAS-JRB    MOCLDY    80  67  64 CALM      30.14F
FTW-SPINKS     MOCLDY    73  69  89 CALM      30.12S
ARLINGTON      MOCLDY    74  69  85 CALM      30.10S
GRAND PRAIRIE  CLOUDY    74  67  78 CALM      30.11S
ADDISON        CLOUDY    77  69  75 CALM      30.12S
MESQUITE       CLOUDY    72  70  93 CALM      30.10S
LANCASTER      CLOUDY    72  67  85 CALM      30.10S
$$

TXZ091>094-102>105-117-120-121-131>134-161100-
NORTH CENTRAL TEXAS

CITY           SKY/WX    TMP DP  RH WIND       PRES   REMARKS
SHRMAN/DENISON MOCLDY    73  69  88 E3        30.13S
GAINESVILLE    PTCLDY    72  70  94 NE3       30.13F
BOWIE          CLOUDY    72  70  93 CALM      30.12S
BRIDGEPORT     MOCLDY    71  71 100 CALM      30.13S
DECATUR        CLOUDY    75  67  76 CALM      30.12S
DENTON         CLOUDY    75  69  81 SE3       30.10F
MCKINNEY       CLOUDY    74  71  91 CALM      30.10F
GREENVILLE     MOCLDY    72  70  94 CALM      30.11S
ROCKWALL       CLOUDY    74  71  89 CALM      30.10R
TERRELL        CLOUDY    75  72  90 NE5       30.10F
WAXAHACHIE     CLOUDY    74  68  81 CALM      30.12S
CLEBURNE       MOCLDY    75  72  88 CALM      30.12S
GRANBURY       MOCLDY    74  68  81 CALM      30.12S
$$

TXZ083>090-098>101-113>116-127>130-139>142-154-155-161100-
WESTERN NORTH TEXAS

CITY           SKY/WX    TMP DP  RH WIND       PRES   REMARKS
WICHITA FALLS  CLOUDY    74  69  85 CALM      30.12R
WF-KICKAPOO    CLOUDY    74  68  81 CALM      30.13S
VERNON         CLOUDY    74  67  78 CALM      30.13S
ABILENE        CLOUDY    74  66  76 SE5       30.15F
ABILENE-DYESS  DRIZZLE   72  65  78 SE2       30.14S
BRECKENRIDGE   CLOUDY    75  66  72 CALM      30.13S
GRAHAM         MOCLDY    72  66  80 CALM      30.11S
MINERAL WELLS  MOCLDY    72  67  84 CALM      30.11S
STEPHENVILLE   CLOUDY    72  66  82 CALM      30.15F
COMANCHE         N/A     71  68  92 CALM      30.13F
BROWNWOOD      CLOUDY    72  68  88 CALM      30.13F
COLEMAN        CLOUDY    71  66  84 CALM      30.15S
BRADY            N/A     70  70 100 E5        30.13F
$$

TXZ143>147-156>162-174-175-161100-
CENTRAL TEXAS

CITY           SKY/WX    TMP DP  RH WIND       PRES   REMARKS
WACO           CLOUDY    74  70  87 N3        30.08F
WACO-MCGREGOR  CLOUDY    73  66  78 CALM      30.10F
HILLSBORO      CLOUDY    74  67  78 CALM      30.10F
CORSICANA      CLOUDY    75  71  87 NE3       30.10S
MEXIA          CLOUDY    73  72  94 CALM      30.08S
HEARNE           N/A     75  72  90 NE3       30.07F
CAMERON        CLOUDY    74  72  92 CALM      30.07F
TEMPLE         CLOUDY    73  66  78 CALM      30.08F
KILLEEN        CLOUDY    73  70  88 N8        30.10F
KILLEEN-SKYLRK CLOUDY    73  64  73 NW3       30.10S
FORT HOOD      CLOUDY    76  70  82 CALM      30.10S
GATESVILLE     CLOUDY    72  72 100 CALM      30.12F
HAMILTON       CLOUDY    72  71  97 SW10      30.13F
LAMPASAS       CLOUDY    72  70  91 N3        30.11S
$$

TXZ095>097-106>112-122>126-135>138-148>153-164>167-161100-
EAST TEXAS

CITY           SKY/WX    TMP DP  RH WIND       PRES   REMARKS
PARIS          MOCLDY    72  64  78 E5        30.13S
SULPHUR SPRNGS MOCLDY    72  71  96 CALM      30.13S
MOUNT PLEASANT MOCLDY    71  70  96 NE3       30.12S
GILMER         CLOUDY    73  73 100 N3        30.12R
MINEOLA        CLOUDY    73  73 100 CALM      30.11S FOG
TYLER          CLOUDY    75  71  87 CALM      30.09F
LONGVIEW       CLOUDY    73  69  87 E3        30.08F
MARSHALL       CLOUDY    76  72  87 CALM      30.11S
ATHENS         CLOUDY    72  72 100 CALM      30.08F
PALESTINE      MOCLDY    75  71  87 CALM      30.09S
JACKSONVILLE   MOCLDY    74  71  91 CALM      30.11S
HENDERSON      CLOUDY    73  72  95 CALM      30.11S
NACOGDOCHES    CLOUDY    73  72  94 CALM      30.08F
LUFKIN         MOCLDY    77  73  87 CALM      30.07F
$$

SUPPLEMENTAL OBSERVATIONS (CENTRAL)

CITY           SKY/WX    TMP DP  RH WIND       PRES   REMARKS
LAKE TEXOMA      N/A     72  68  88 SE3         N/A
CADDO GRASSLND   N/A     72  68  88 CALM        N/A
PAT MAYSE LAKE   N/A     72  70  94 E3          N/A
GREENVILLE       N/A     72  66  83 E3          N/A
CEDAR HILL       N/A     73  68  83 CALM        N/A
PALESTINE        N/A     72  70  94 CALM        N/A
LAKE LIMESTONE   N/A     73  70  88 NE5         N/A
MCGREGOR         N/A     72  68  88 NW1         N/A
TEMPLE           N/A     75  70  83 E5          N/A
$$

SUPPLEMENTAL OBSERVATIONS (WEST)

CITY           SKY/WX    TMP DP  RH WIND       PRES   REMARKS
MILLERS CREEK    N/A     73  66  78 S3          N/A
POSSUM KINGDOM   N/A     73  64  73 SE3         N/A
LBJ GRASSLAND    N/A     73  66  78 SE2         N/A
GRANBURY         N/A     73  66  78 S1          N/A
COMANCHE         N/A     72  68  88 SE3         N/A
HAMBY            N/A     72  66  83 SE2         N/A
IVIE RESERVOIR   N/A     72  68  88 E2          N/A
COLORADO BEND    N/A     72  68  88 SE2         N/A
$$

SUPPLEMENTAL OBSERVATIONS (EAST)

CITY           SKY/WX    TMP DP  RH WIND       PRES   REMARKS
TEXARKANA        N/A     70  68  94 CALM        N/A
LINDEN           N/A     72  68  88 NE1         N/A
CADDO LAKE       N/A     72  70  94 CALM        N/A
LUFKIN           N/A     75  72  88 MISG        N/A
N SABINE NF      N/A     72  68  88 MISG        N/A
$$

SUPPLEMENTAL OBSERVATIONS ARE A COLLECTION OF AUTOMATED INSTRUMENTS
THAT ARE MAINTAINED BY A VARIETY OF FEDERAL AND STATE AGENCIES.
CERTAIN ELEMENTS...SUCH AS HUMIDITY VALUES AND SUSTAINED WIND
SPEEDS...MAY BE APPROXIMATED.